星链-6251 (STARLINK-6251 )

导读

STARLINK-6251是美国太空探索技术公司SpaceX星链星座中的一颗卫星,于北京时间2023年6月22日发射入轨,属于星链网络扩容任务的组成部分。星链系统旨在构建全球卫星互联网,为偏远地区、海上和空中用户提供低延迟宽带网络服务,这颗卫星的入轨进一步扩充了星链星座的服务容量。

基本信息
目录编号:
57087
目录名称:
STARLINK-6251
国际标识:
2023-088AR
轨道中心:
EARTH
卫星名称:
星链-6251
卫星全名:
星链-6251 (STARLINK-6251 )
卫星状态:
在轨 (已飞行1178 天)
发射日期:
2023-06-22 UTC
国别 :
美国 (US)
星等 :
--
该卫星已列入 空间交会检测服务 Space Conjunction Data Service (SCDS) ,当前飞行风险评估等级: 高风险
轨道信息
数据来源 国际轨道数据
星历时间: 2026-09-12T08:51:57+0800
16小时前
查看轨道信息
半长轴: 6861.187km
偏心率: 0.0001508
轨道倾角: 43.004°
近地点辐角 274.722°
升交点赤经 123.394°
平近点角 85.346°
近地点: 482.015km
远地点: 484.085km
周期: 94.267分钟
每日圈数: 15.275798
详细信息
固有亮度:
5
最大亮度:
2.4
卫星平台:
Starlink v1.5
覆盖范围:
全球
运营商:
太空探索技术公司
运营商所在国:
美国
制造商(研发单位):
太空探索技术公司
制造商所在国:
美国
使用方式:
暂无
卫星简介
星链(Starlink)计划是由太空探索技术公司(SpaceX)提出的一个巨型低轨卫星互联网星座项目,计划在2019年至2024年间在太空搭建由约1.2万颗卫星组成的“星链”网络,其中1584颗将部署在地球上空550千米处的近地轨道,并从2020年开始工作。该卫星仍在工作。
2D轨道图
3D轨道图
轨道高度分析图
轨道倾角分析图
轨道综合分析图
查看轨道综合分析图
交会数据列表
事件ID 空间交会对象 最接近时刻(TCA) 交会距离 交会风险概率(CRP) 交会风险指数(CRI) 操作
CDM_260915-044005-708706-274621
2026-09-15T
04:40:49+0000
0.695 km
远距离
4.304895E-5 中风险 0.68
CDM_260913-004105-708706-409523
2026-09-13T
00:41:24+0000
1.013 km
极远距离
2.069409E-5 中风险 0.61
CDM_260914-093705-708706-698121
2026-09-14T
09:37:44+0000
1.195 km
极远距离
7.88151E-6 低风险 0.53
CDM_260914-164105-708706-698121
2026-09-14T
16:41:26+0000
1.262 km
极远距离
6.537975E-6 低风险 0.51
CDM_260914-080305-708706-698121
2026-09-14T
08:03:35+0000
1.418 km
极远距离
4.439652E-6 低风险 0.48
CDM_260914-181505-708706-698121
2026-09-14T
18:15:35+0000
2.105 km
极远距离
1.468708E-6 低风险 0.38
CDM_260913-005705-708706-308521
2026-09-13T
00:57:40+0000
2.897 km
极远距离
1.199377E-6 低风险 0.37
CDM_260912-135005-708706-471021
2026-09-12T
13:50:51+0000
2.705 km
极远距离
1.136267E-6 低风险 0.36
CDM_260915-030605-708706-274621
2026-09-15T
03:06:40+0000
2.760 km
极远距离
8.201194E-7 极低风险 0.33
与全量物体交会距离演化趋势
与全量物体交会风险概率演化趋势